User: anonymous   Login
Location: Columbia
(38.9520°N, 92.3340°W)
Time: 10:39:12
(UTC-06:00)
Language:

Cosmos 2100 Rocket - Orbit

View from above orbital plane
View from above orbital plane
View from above satellite
View from above satellite

Ground track
Ground track

The orbit data is extracted from the following two-line orbital elements,

1 20805U 90083B   15031.37762676  .00000036  00000-0  21741-4 0  9010
2 20805 082.9405 345.1805 0029335 298.5124 236.1486 13.75747190224073
Epoch (UTC): 31 January 2015 09:03:46
Eccentricity: 0.0029335
inclination: 82.9405°
perigee height: 957 km
apogee height: 1000 km
right ascension of ascending node: 345.1805°
argument of perigee: 298.5124°
revolutions per day: 13.75747190
mean anomaly at epoch: 236.1486°
orbit number at epoch: 22407

The dashed part of the orbit path shows where the satellite is in the earth's shadow,  

DLR